Lewiston, WA

8:30 PM PST on February 25, 2018 (GMT -0800)
Lewiston-Nez Perce County

Weather History for KLWS - May, 2014

Change the Weather History Date:

Friday, May 16, 2014

  Actual Average Record
Temperature  
Mean Temperature 71 °F 59 °F  
Max Temperature 83 °F 71 °F 96 °F (2006)
Min Temperature 58 °F 47 °F 34 °F (1983)
Degree Days  
Heating Degree Days 0 7  
Month to date heating degree days 92 140  
Since 1 July heating degree days 5253 5020  
Cooling Degree Days 6 1  
Month to date cooling degree days 14 13  
Year to date cooling degree days 14 15  
Growing Degree Days 20 (Base 50)    
Moisture  
Dew Point 35 °F    
Average Humidity 36    
Maximum Humidity 62    
Minimum Humidity 9    
Precipitation  
Precipitation 0.00 in 0.05 in 1.65 in (1897)
Month to date precipitation 0.32 0.79  
Year to date precipitation 5.09 5.12  
Snow  
Snow 0.00 in 0.00 in T in (1974)
Month to date snowfall 0.0 0.0  
Since 1 July snowfall 16.5 10.5  
Snow Depth 0.00 in    
Sea Level Pressure  
Sea Level Pressure 29.90 in    
Wind  
Wind Speed 5 mph (SE)    
Max Wind Speed 20 mph    
Max Gust Speed 26 mph    
Visibility 10 miles    
Events      
T = Trace of Precipitation, MM = Missing Value Source: NWS Daily Summary

Daily Weather History Graph

Daily Weather History Graph

Search for Another Location

Airport or City:

Trip Planner

Search our weather history database for the weather conditions in past years. The results will help you decide how hot, cold, wet, or windy it might be!

Date:

Astronomy

May. 16, 2014 Rise Set
Actual Time 5:13 AM PDT 8:16 PM PDT
Civil Twilight 4:37 AM PDT 8:51 PM PDT
Nautical Twilight 3:52 AM PDT 9:37 PM PDT
Astronomical Twilight 2:56 AM PDT 10:33 PM PDT
Moon 10:26 PM PDT (5/16) 6:59 AM PDT (5/16)
Length of Visible Light 16h 13m
Length of Day
15h 02m
Waning Gibbous, 95% of the Moon is Illuminated
May 16
Waning Gibbous
May 21
Last Quarter
May 28
New
Jun 5
First Quarter
Jun 12
Full

Hourly Weather History & Observations

Time (PDT) Temp. Dew Point Humidity Pressure Visibility Wind Dir Wind Speed Gust Speed Precip Events Conditions
12:56 AM 64.0 °F 43.0 °F 46% 29.93 in 10.0 mi SSE 4.6 mph - N/A   Clear
1:56 AM 63.0 °F 43.0 °F 48% 29.93 in 10.0 mi SE 3.5 mph - N/A   Clear
2:56 AM 63.0 °F 43.0 °F 48% 29.92 in 10.0 mi North 3.5 mph - N/A   Clear
3:56 AM 61.0 °F 43.0 °F 52% 29.94 in 10.0 mi WSW 3.5 mph - N/A   Partly Cloudy
4:56 AM 59.0 °F 46.0 °F 62% 29.94 in 10.0 mi Calm Calm - N/A   Partly Cloudy
5:56 AM 61.0 °F 45.0 °F 56% 29.95 in 10.0 mi East 3.5 mph - N/A   Clear
6:56 AM 63.0 °F 44.1 °F 50% 29.96 in 10.0 mi East 5.8 mph - N/A   Partly Cloudy
7:56 AM 64.9 °F 46.0 °F 50% 29.95 in 10.0 mi NE 4.6 mph - N/A   Clear
8:56 AM 68.0 °F 46.9 °F 47% 29.96 in 10.0 mi Variable 3.5 mph - N/A   Clear
9:56 AM 70.0 °F 46.0 °F 42% 29.95 in 10.0 mi Calm Calm - N/A   Clear
10:56 AM 73.0 °F 46.9 °F 39% 29.94 in 10.0 mi Variable 4.6 mph - N/A   Clear
11:56 AM 75.9 °F 42.1 °F 30% 29.92 in 10.0 mi Variable 5.8 mph - N/A   Clear
12:56 PM 78.8 °F 39.2 °F 24% 29.93 in 10.0 mi SE 5.8 mph - N/A   Clear
1:56 PM 80.1 °F 35.1 °F 20% 29.88 in 10.0 mi ESE 4.6 mph - N/A   Clear
2:56 PM 81.0 °F 34.0 °F 18% 29.87 in 10.0 mi Variable 3.5 mph - N/A   Clear
3:56 PM 81.0 °F 18.0 °F 10% 29.86 in 10.0 mi NNW 10.4 mph - N/A   Clear
4:56 PM 82.9 °F 21.0 °F 10% 29.84 in 10.0 mi Variable 4.6 mph - N/A   Clear
5:56 PM 81.0 °F 25.0 °F 13% 29.83 in 10.0 mi WNW 9.2 mph - N/A   Clear
6:56 PM 78.1 °F 19.9 °F 11% 29.83 in 10.0 mi WNW 12.7 mph 23.0 mph N/A   Clear
7:56 PM 75.0 °F 18.0 °F 12% 29.84 in 10.0 mi WNW 11.5 mph - N/A   Clear
8:56 PM 72.0 °F 19.9 °F 14% 29.86 in 10.0 mi West 5.8 mph - N/A   Clear
9:56 PM 66.0 °F 21.9 °F 19% 29.87 in 10.0 mi SW 6.9 mph - N/A   Clear
10:56 PM 61.0 °F 27.0 °F 27% 29.88 in 10.0 mi SSE 8.1 mph - N/A   Clear
11:56 PM 64.0 °F 26.1 °F 24% 29.89 in 10.0 mi Calm Calm - N/A   Clear